AU224 Weather Reports


Display with metric or nautical units.
time (UTC)temp
F
wind
direction
speed
MPH
gust
MPH
rain 1hr
in
rain 24hr
in
rain mn
in
humidity
%
barometer
mb
20260901074553 65 0 0.0 2.0 0.00 0.00 0.00 65 1019.5
20260901073052 64 0 0.0 0.0 0.00 0.00 0.00 68 1019.4
20260901071605 62 0 0.0 0.0 0.00 0.00 0.00 69 1019.3
20260901064608 59 0 0.0 0.0 0.00 0.00 0.00 75 1019.3
20260901063100 57 0 0.0 0.0 0.00 0.00 0.00 77 1019.3
20260901061601 56 0 0.0 0.0 0.00 0.00 0.00 77 1019.3
20260901060051 55 0 0.0 0.0 0.00 0.00 0.00 81 1019.3
20260901054556 52 0 0.0 0.0 0.00 0.00 0.00 82 1019.3
20260901053114 51 0 0.0 0.0 0.00 0.00 0.00 81 1019.2
20260901051555 51 0 0.0 0.0 0.00 0.00 0.00 81 1019.2
20260901050048 51 0 0.0 0.0 0.00 0.00 0.00 80 1019.2
20260901044556 51 0 0.0 0.0 0.00 0.00 0.00 78 1019.2
20260901043055 51 0 0.0 0.0 0.00 0.00 0.00 78 1019.1
20260901041553 51 0 0.0 0.0 0.00 0.00 0.00 77 1019.1
20260901040104 51 0 0.0 0.0 0.00 0.00 0.00 76 1019.2
20260901034558 51 0 0.0 0.0 0.00 0.00 0.00 76 1019.1
20260901033055 52 0 0.0 0.0 0.00 0.00 0.00 75 1019.1
20260901031554 52 0 0.0 0.0 0.00 0.00 0.00 75 1019.0
20260901030048 52 0 0.0 0.0 0.00 0.00 0.00 75 1019.2
20260901024602 52 0 0.0 0.0 0.00 0.12 0.00 74 1019.2
20260901023057 52 0 0.0 0.0 0.00 0.12 0.00 72 1019.2
20260901021557 53 0 0.0 0.0 0.00 0.12 0.00 72 1019.2
20260901020053 53 0 0.0 0.0 0.00 0.12 0.00 71 1019.1
20260901014552 54 0 0.0 0.0 0.00 0.12 0.00 71 1019.1
20260901013104 54 0 0.0 0.0 0.00 0.12 0.00 70 1019.0
20260901011554 55 0 0.0 0.0 0.00 0.12 0.00 69 1018.8
20260901010056 55 0 0.0 0.0 0.00 0.12 0.00 68 1018.8
20260901004603 56 0 0.0 0.0 0.00 0.12 0.00 68 1018.7
20260901003106 56 0 0.0 0.0 0.00 0.12 0.00 68 1018.8
20260901001555 57 0 0.0 0.0 0.00 0.12 0.00 66 1018.7
20260901000053 57 0 0.0 0.0 0.00 0.12 0.00 66 1018.6
20260831234547 58 0 0.0 0.0 0.00 0.12 0.00 66 1018.5
20260831233058 58 0 0.0 0.0 0.00 0.12 0.00 65 1018.7
20260831231612 59 0 0.0 0.0 0.00 0.12 0.00 65 1018.8
20260831230051 59 0 0.0 0.0 0.00 0.12 0.00 65 1018.9
20260831224555 59 0 0.0 0.0 0.00 0.12 0.00 64 1018.9
20260831223101 59 0 0.0 0.0 0.00 0.12 0.00 64 1018.9
20260831221547 60 0 0.0 0.0 0.00 0.12 0.00 62 1018.9
20260831220055 61 0 0.0 0.0 0.00 0.12 0.00 60 1019.0
20260831214555 61 0 0.0 0.0 0.00 0.12 0.12 59 1018.9
20260831213058 62 0 0.0 0.0 0.00 0.12 0.12 57 1018.8
20260831211557 62 0 0.0 10.0 0.00 0.12 0.12 57 1018.8
20260831210056 63 360 1.0 13.0 0.00 0.12 0.12 56 1018.7
20260831204554 64 279 4.0 11.0 0.00 0.12 0.12 56 1018.7
20260831203056 64 268 7.0 11.0 0.00 0.12 0.12 55 1018.5
20260831201604 65 249 1.0 6.0 0.00 0.12 0.12 54 1018.2
20260831200058 65 0 0.0 7.0 0.00 0.12 0.12 54 1018.0
20260831194637 66 281 4.0 11.0 0.00 0.12 0.12 54 1017.7
20260831193059 66 360 0.0 1.0 0.00 0.12 0.12 55 1017.6
20260831191601 66 0 1.0 8.0 0.00 0.12 0.12 54 1017.2
20260831190100 66 0 0.0 9.0 0.00 0.12 0.12 54 1017.0
20260831184556 67 0 0.0 5.0 0.00 0.12 0.12 52 1016.7
20260831183052 68 0 0.0 6.0 0.00 0.12 0.12 51 1016.3
20260831181608 68 360 0.0 9.0 0.00 0.12 0.12 50 1015.9
20260831180054 69 360 1.0 8.0 0.00 0.12 0.12 49 1015.7
20260831174556 69 205 4.0 16.0 0.00 0.12 0.12 48 1015.5
20260831173055 70 272 6.0 9.0 0.00 0.12 0.12 47 1015.4
20260831171555 70 360 8.0 16.0 0.00 0.12 0.12 45 1015.2
20260831170058 71 276 6.0 16.0 0.00 0.12 0.12 46 1015.1
20260831164556 71 232 4.0 13.0 0.00 0.12 0.12 44 1015.0
20260831163052 72 254 6.0 13.0 0.00 0.12 0.12 43 1015.1
20260831161600 73 300 7.0 13.0 0.00 0.12 0.12 45 1015.0
20260831160055 73 209 2.0 11.0 0.00 0.12 0.12 43 1014.9
20260831154616 74 204 1.0 19.0 0.00 0.12 0.12 43 1014.7
20260831153118 74 80 1.0 15.0 0.00 0.12 0.12 44 1014.8
20260831151603 74 360 5.0 15.0 0.00 0.12 0.12 43 1015.0
20260831150055 71 360 4.0 13.0 0.00 0.12 0.12 46 1015.0
20260831144626 74 360 10.0 18.0 0.00 0.12 0.12 45 1015.0
20260831143050 74 313 2.0 0.0 0.00 0.12 0.12 44 1015.1
20260831141557 74 360 5.0 20.0 0.00 0.12 0.12 44 1015.0
20260831140054 74 241 6.0 20.0 0.00 0.12 0.12 45 1015.0
20260831134555 73 360 9.0 9.0 0.00 0.12 0.12 45 1015.0
20260831133108 72 276 8.0 15.0 0.00 0.12 0.12 48 1015.3
20260831131603 71 252 7.0 11.0 0.00 0.12 0.12 51 1015.4
20260831130105 72 360 2.0 12.0 0.00 0.12 0.12 49 1015.4
20260831124555 73 161 6.0 20.0 0.00 0.12 0.12 49 1015.3
20260831123059 73 360 8.0 23.0 0.00 0.12 0.12 49 1015.4
20260831121554 72 360 6.0 18.0 0.00 0.12 0.12 51 1015.4
20260831120104 72 15 2.0 20.0 0.00 0.12 0.12 54 1015.4
20260831114607 72 293 4.0 0.0 0.00 0.12 0.12 53 1015.5
20260831113102 71 286 12.0 20.0 0.00 0.12 0.12 55 1015.6
20260831111558 72 279 3.0 11.0 0.00 0.12 0.12 59 1015.7
20260831110106 72 360 8.0 17.0 0.00 0.12 0.12 59 1015.6
20260831104551 71 360 3.0 16.0 0.00 0.12 0.12 62 1015.6
20260831103059 69 360 3.0 16.0 0.00 0.12 0.12 64 1015.8
20260831101557 68 360 3.0 13.0 0.00 0.12 0.12 67 1015.8
20260831100116 70 0 1.0 9.0 0.00 0.12 0.12 65 1015.8
20260831094548 68 0 0.0 3.0 0.00 0.12 0.12 69 1016.0
20260831093102 67 284 1.0 8.0 0.00 0.12 0.12 69 1016.0
20260831091601 67 172 1.0 9.0 0.00 0.12 0.12 70 1016.0
20260831090101 67 0 0.0 10.0 0.00 0.12 0.12 71 1016.0
20260831084632 67 294 7.0 0.0 0.00 0.12 0.12 71 1015.8
20260831083054 66 209 1.0 13.0 0.00 0.12 0.12 72 1015.7
20260831081547 65 255 5.0 14.0 0.00 0.12 0.12 74 1015.7
20260831080110 65 360 2.0 12.0 0.00 0.12 0.12 78 1015.6